CZ-6A DEB

Satellite information

Favourite Embed

Satellite Type and Status

DEBRISIN ORBIT

Key statistics

Satellite CZ-6A DEB at a glance.

Uptime

1023

Days in orbit

Revolutions

≈ 14.2

Per day

Orbit

SSO

Sun Synchronous Orbit

Inclination

98.8

Latest

Satellite identification and parameters

Extended collection of information and parameters for CZ-6A DEB.

Object identification

Identified? True

Debris? True

Object name: CZ-6A DEB

International designator: 2022-151ABV

Object number (NORAD): 56253

Object ID (CCSDS): 56253

Country: PEOPLES REPUBLIC OF CHINA (PRC)

Current information (Y/N): Y

RCS size: SMALL

Orbital parameters

Period: 101.47 minutes

Inclination: 98.8246 deg

SMA: 7206.403 km

Apoapsis: 851.566 km

Periapsis: 804.971 km

RAAN: 251.2343 deg

Eccentricy: 0.00323291

Argument of periapsis: 60.2986 deg

Mean anomaly: 300.1401 deg

Mean motion: 14.19138979 rev/day

Mean motion (dot): 0.00002812 rev/day2

B* drag term: 0.0013574728 1/REarth

Two-line elements (TLE)

Creation date: Aug. 29, 2025, 9:54 a.m.

Reference frame: TEME

Reference center: EARTH

Epoch: Aug. 28, 2025, 11:45 p.m. UTC

TLE line 0: 0 CZ-6A DEB

TLE line 1: 1 56253U 22151ABV 25240.99012407 .00002812 00000-0 13575-2 0 9993

TLE line 2: 2 56253 98.8246 251.2343 0032329 60.2986 300.1401 14.19138979132333

Live tracking on map

Real-time ground track for satellite CZ-6A DEB.

In-orbit conjunctions

A list of the most updated potential collisions computed for object CZ-6A DEB.

Target Orbit TCA Probability of collision Miss distance Type
RESURS O1-N4 SSO 2025-06-06 23:30:22 0.0001032452 689.0 (m) PAYLOAD
THORAD AGENA D DEB LEO 2024-11-09 22:15:20 0.003249572 233.0 (m) DEBRIS
METEOR 2-5 DEB LEO 2024-09-27 19:26:05 0.0002223749 94.0 (m) DEBRIS

Associated space launch

Chinese satellite reported for atmospheric/ocean/environmental/spatial parameter research purposes, details TBD.

CZ-6A DEB was lifted into orbit during the mission ‘Long March 6A | Yunhai 3’, on board a Long March 6A space rocket.

The launch took place on Nov. 11, 2022, 10:52 p.m. from Launch Complex 9A.

For more information about the launch, click the button.

Launch to space Long March 6A | Yunhai 3
Long March 6A | Yunhai 3

Agency: N/A

Status: Launch Successful

Launch date: Nov. 11, 2022, 10:52 p.m. UTC

Rocket: Long March 6A

Launch pad: Launch Complex 9A

Location: Taiyuan Satellite Launch Center, People's Republic of China

...

Latest news about this satellite

There are no fresh news available about this satellite. Check back as we update our databases every day.


Newsletter sign-up

Weekly statistics, charts and insights to help you stay on top of the space industry.